sat.trackr.live / text

‹ back to catalog

2025-313P

NORAD 67261 · 2025-313P

PAYLOAD ACTIVE UNKNOWN

§ Identity

Operator
Country
TBD
Launch date
2025-12-28
Launch site
VOSTO
Launch vehicle
Mass (kg)
RCS (m²)

External: N2YO · Heavens-Above · Gunter

§ Orbital elements

Epoch: 2026-05-25T03:03:43.350048Z

Period
94.40 min
Inclination
97.3975°
Eccentricity
0.0015193
Mean motion
15.25476289 rev/d
Perigee alt
478.9 km
Apogee alt
499.8 km
Semi-major
6,867.5 km
B*
6.9485e-4
RAAN
220.5288°
Arg perigee
85.4185°
Mean anomaly
274.8788°
Rev number
2,246

§ Raw data

2025-313P1 67261U 25313P   26145.12758507  .00017597  00000+0  69485-3 0  99922 67261  97.3975 220.5288 0015193  85.4185 274.8788 15.25476289 22468

JSON: /api/v1/satellites/67261 · /tle

For live sub-satellite position, see the globe view (requires WebGL).

§ Visibility from observer

Set your observer location to see the next 7 days of passes ≥ 10°. The values pass through the URL so the page stays shareable.

No JS? Fill the form by hand. The geolocation button needs JavaScript.